Regional Weather Roundup
Issued by NWS

Home | Current Version | Previous Version | Graphics & Text | Print | Product List | Glossary Off
Versions: 1 2 3 4 5 6 7 8 9 10 11 12 13 14 15 16 17 18 19 20 21 22 23 24 25 26 27 28 29 30 31 32 33 34 35 36 37 38 39 40 41 42 43 44 45 46 47 48 49 50

000
ASUS43 KTOP 231208
RWRKS

WEATHER ROUNDUP FOR KANSAS
NATIONAL WEATHER SERVICE GOODLAND KS
700 AM CDT THU MAR 23 2017

NOTE:  "FAIR" INDICATES FEW OR NO CLOUDS BELOW 12,000 FEET WITH NO
SIGNIFICANT WEATHER AND/OR OBSTRUCTIONS TO VISIBILITY.

KSZ001>006-013>018-027>032-041>047-231300-
NORTHWEST KANSAS

CITY           SKY/WX    TMP DP  RH WIND       PRES   REMARKS
GOODLAND       CLEAR     44  43  96 S21       29.72F FOG
6HR MIN TEMP:  43; 6HR MAX TEMP:  45;

HAYS             N/A     52  50  93 SE17      29.83F FOG
HILL CITY      CLOUDY    51  51 100 SE8       29.82F FOG
6HR MIN TEMP:  45; 6HR MAX TEMP:  51;

RUSSELL        CLOUDY    54  49  83 SE16G25   29.84F
6HR MIN TEMP:  47; 6HR MAX TEMP:  54;

$$

KSZ061>065-074>080-084>089-231300-
SOUTHWEST KANSAS

CITY           SKY/WX    TMP DP  RH WIND       PRES   REMARKS
DODGE CITY     CLOUDY    58  57  97 S17       29.83F FOG
6HR MIN TEMP:  46; 6HR MAX TEMP:  58;

ELKHART          N/A     47  40  77 S14         N/A
GARDEN CITY    CLOUDY    57  55  93 S16G24    29.80F FOG
6HR MIN TEMP:  44; 6HR MAX TEMP:  57;

GREAT BEND     CLOUDY    55  50  83 SE17      29.86F
LIBERAL        CLEAR     50  45  81 SE8       29.83F
PRATT          CLOUDY    53  50  89 SE20      29.88S
6HR MIN TEMP:  49; 6HR MAX TEMP:  53;

$$

KSZ066>073-081>083-090>101-231300-
SOUTHEAST KANSAS

CITY           SKY/WX    TMP DP  RH WIND       PRES   REMARKS
CHANUTE        CLEAR     54  44  69 S14       30.05S
6HR MIN TEMP:  54; 6HR MAX TEMP:  56;

COFFEYVILLE    CLOUDY    56  44  64 SE12      30.06S
6HR MIN TEMP:  55; 6HR MAX TEMP:  58;

HUTCHINSON     CLOUDY    56  47  71 SE17      29.92F
6HR MIN TEMP:  51; 6HR MAX TEMP:  56;

MEDICINE LODGE   N/A     54  49  83 SE15G23   29.90S
NEWTON         CLEAR     52  46  80 SE16      29.95F
PARSONS        MOCLDY    55  45  68 SE6       30.06S
6HR MIN TEMP:  55; 6HR MAX TEMP:  58;

WICHITA INTL   MOCLDY    54  48  80 SE13      29.94F
6HR MIN TEMP:  53; 6HR MAX TEMP:  56;

WICHITA JABRA  CLEAR     53  47  79 SE16      29.95F
6HR MIN TEMP:  53; 6HR MAX TEMP:  55;

WICHITA MCCONL CLEAR     54  47  77 S16G22    29.95F
WINFIELD       CLEAR     55  48  77 SE15      29.99S
6HR MIN TEMP:  55; 6HR MAX TEMP:  58;

$$

KSZ007>012-019>026-033>040-048>060-102>105-231300-
NORTHEAST KANSAS

CITY           SKY/WX    TMP DP  RH WIND       PRES   REMARKS
CONCORDIA      CLOUDY    49  46  90 SE15      29.92F
6HR MIN TEMP:  48; 6HR MAX TEMP:  52;

EMPORIA        CLOUDY    55  45  68 SE16      30.00F
6HR MIN TEMP:  53; 6HR MAX TEMP:  55; 6HR PCP: TRACE;

LAWRENCE       CLOUDY    53  31  42 SE12      30.06S
6HR MIN TEMP:  50; 6HR MAX TEMP:  53; 6HR PCP: TRACE;

MANHATTAN      CLOUDY    51  45  79 E7        29.97F
6HR MIN TEMP:  46; 6HR MAX TEMP:  54; 6HR PCP:  0.03;

MARYSVILLE     CLOUDY    50  37  62 SE15G21   29.97F
OLATHE IND     CLOUDY    52  31  44 SE20      30.05F
6HR MIN TEMP:  50; 6HR MAX TEMP:  53; 6HR PCP: TRACE;

OLATHE EXE     CLOUDY    51  31  46 SE16      30.07F
6HR MIN TEMP:  49; 6HR MAX TEMP:  51; 6HR PCP: TRACE;

SALINA         CLOUDY    57  46  66 SE17      29.92F
6HR MIN TEMP:  53; 6HR MAX TEMP:  57;

TOPEKA BILLARD CLOUDY    53  36  52 E10       30.03F
6HR MIN TEMP:  51; 6HR MAX TEMP:  53; 6HR PCP: TRACE;

TOPEKA FORBES  CLOUDY    55  34  45 SE13G21   30.02F
6HR MIN TEMP:  52; 6HR MAX TEMP:  55; 6HR PCP: TRACE;

$$




USA.gov is the U.S. government's official web portal to all federal, state and local government web resources and services.